Volver al catálogo

STARLINK-11707

ActivoComunicacionesVLEO
NORAD 64328·PAYLOAD·🇺🇸 United States

Lanzado Jun 10, 2025 desde Cape Canaveral Space Force Station

Loading…

Próximos Pases (próximas 24 horas)

TLE

ActualizadoSource: CelesTrak SupGP

Época: Sep 14, 2026, 21:07 UTC

1 64328C 25124M   26257.88034722 -.00078626  00000+0 -61040-3 0  2574
2 64328  43.0000 328.7496 0001574 259.9378 332.8023 15.70888648    18

Sigue STARLINK-11707 en tiempo real con AllMySat

Download on the App Store